Regional Weather Roundup
Issued by NWS

Home | Current Version | Previous Version | Graphics & Text | Print | Product List | Glossary On
Versions: 1 2 3 4 5 6 7 8 9 10 11 12 13 14 15 16 17 18 19 20 21 22 23 24 25 26 27 28 29 30 31 32 33 34 35 36 37 38 39 40 41 42 43 44 45 46 47 48 49 50
000
ASUS43 KLOT 010601
RWRIL

ILLINOIS REGIONAL WEATHER ROUNDUP
NATIONAL WEATHER SERVICE CHICAGO/ROMEOVILLE IL
100 AM CDT SAT AUG 01 2015

NOTE: "FAIR" INDICATES FEW OR NO CLOUDS BELOW 12,000 FEET WITH NO
SIGNIFICANT WEATHER AND/OR OBSTRUCTIONS TO VISIBILITY.

* THESE STATIONS ARE NOT UNDER NWS QUALITY CONTROL. THEY ALSO MAY NOT
  REPORT WEATHER SUCH AS PRECIPITATION OR FOG.

ILZ001-002-007-009-015-016-024-010700-
NORTHWEST ILLINOIS

CITY           SKY/WX    TMP DP  RH WIND       PRES   REMARKS
MOLINE         CLEAR     65  58  78 CALM      30.05R
6HR MIN TEMP:  64; 6HR MAX TEMP:  83;

STERLING*      CLEAR     63  57  82 W8        30.01S
$$

ILZ003-004-008-010-011-017-018-010700-
NORTH CENTRAL ILLINOIS

CITY           SKY/WX    TMP DP  RH WIND       PRES   REMARKS
ROCKFORD       CLEAR     63  54  72 VRB3      30.03R
6HR MIN TEMP:  60; 6HR MAX TEMP:  81;

$$

ILZ005-006-012>014-019>023-010700-
NORTHEAST ILLINOIS

CITY           SKY/WX    TMP DP  RH WIND       PRES   REMARKS
CHICAGO-OHARE  CLEAR     69  52  54 W8        29.99R
6HR MIN TEMP:  69; 6HR MAX TEMP:  82;

CHICAGO-MIDWAY CLEAR     72  51  47 W5        29.99R
6HR MIN TEMP:  72; 6HR MAX TEMP:  84;

AURORA         CLEAR     59  54  83 W3        30.01S
6HR MIN TEMP:  58; 6HR MAX TEMP:  79;

WAUKEGAN       CLEAR     64  53  67 W3        29.97S
6HR MIN TEMP:  62; 6HR MAX TEMP:  78;

DUPAGE AIRPORT CLEAR     65  52  62 W5        30.00R
6HR MIN TEMP:  64; 6HR MAX TEMP:  81;

WHEELING       CLEAR     68  51  54 NW5       29.99S
6HR MIN TEMP:  68; 6HR MAX TEMP:  81;

NORTHERLY ISL    N/A     75  51  43 W7          N/A
$$

LMZ740>746-010700-
SOUTHERN LAKE MICHIGAN

STATION/POSITION SKY/WX   TEMP    WIND        PRES    VSBY  WAVE
                          AIR SEA DIR/SP/G                  HT/PER
                          (F)     (DEG/KT/KT) (MB)    (MI)  (FT/S)
HARRISON CRIB              75     300/ 12/ 15   N/A
BURNHAM HARBOR             76     300/  7/  8   N/A
CALUMET HARBOR             74     270/  2/  4   N/A
BURNS HARBOR               75     300/  7/  9 1015.2S
MICHIGAN CITY              75     270/ 12/ 13   N/A
MICHIGAN CITY 6N           75 74  310/ 10/ 14   N/A           2/ 4
ST. JOSEPH                 75 74  330/ 12/ 14   N/A           2/ 4
$$

ILZ025>027-034>036-040-047-049-050-058-095>099-010700-
WEST-CENTRAL ILLINOIS

CITY           SKY/WX    TMP DP  RH WIND       PRES   REMARKS
QUINCY         PTCLDY    73  67  81 NE5       30.06S
MACOMB*        CLEAR     64  62  95 NW5       30.08S
$$

ILZ028>032-037-038-041>044-048-051>054-059>061-010700-
CENTRAL ILLINOIS

CITY           SKY/WX    TMP DP  RH WIND       PRES   REMARKS
DECATUR        CLEAR     76  60  57 NW9       30.04S
PEORIA         CLEAR     72  58  61 N3        30.05R
6HR MIN TEMP:  72; 6HR MAX TEMP:  86;

SPRINGFIELD    PTCLDY    73  66  78 NW6       30.05S
6HR MIN TEMP:  72; 6HR MAX TEMP:  86;

TAYLORVILLE    NOT AVBL
$$

ILZ033-039-045-046-055>057-062-063-010700-
EAST-CENTRAL ILLINOIS

CITY           SKY/WX    TMP DP  RH WIND       PRES   REMARKS
CHAMPAIGN      CLEAR     66  61  84 NW5       30.04R
MATTOON        PTCLDY    73  59  61 W5        30.03S
$$

ILZ079-100>102-010700-
SOUTHWEST ILLINOIS

CITY           SKY/WX    TMP DP  RH WIND       PRES   REMARKS
BELLEVILLE     CLEAR     71  71  99 CALM      30.04S
CAHOKIA*       CLEAR     72  67  84 SE3       30.04F
$$

ILZ064>066-069>071-074>076-080>082-084>086-088>090-092>094-010700-
SOUTH-CENTRAL ILLINOIS

CITY           SKY/WX    TMP DP  RH WIND       PRES   REMARKS
CARBONDALE     CLEAR     73  70  90 CALM      30.05S
6HR MIN TEMP:  72; 6HR MAX TEMP:  87;

MT. VERNON     CLEAR     66  63  88 CALM      30.05S
SALEM*         CLEAR     70  67  88 CALM      30.05S
$$

ILZ067-068-072-073-078-083-087-091-010700-
SOUTHEAST ILLINOIS

CITY           SKY/WX    TMP DP  RH WIND       PRES   REMARKS
LAWRENCEVILLE  CLEAR     72  69  90 CALM      30.02F
HARRISBURG*    CLEAR     70  70 100 CALM      30.05F
ROBINSON*      CLEAR     67  66  96 CALM      30.03F
CARMI*         CLEAR     71  65  83 CALM      30.03S
$$

ABBREVIATIONS USED IN REMARKS
   TC - TEMPERATURE IN CELSIUS
  WCI - WIND CHILL INDEX
   HX - HEAT INDEX
  VSB - VISIBILITY
$$



USA.gov is the U.S. government's official web portal to all federal, state and local government web resources and services.